THY4QN LTFM-LTAN

Flight info

Callsign THY4QN
Flight time 0h 52m
Altitude 33000
Route RATVU UT35 DOKUB UT76 KFK UB545 HISAR
Aircraft A320/M-SDE3FGHIRWY/LB1

Departure

Time 2026-05-05 10:14
Airport İstanbul Airport (LTFM)

Arrival

Time 2026-05-05 11:06
Airport Konya Airport (LTAN)
Time Latitude Longitude Altitude Speed Heading
2026-05-05 09:43 41.26357 28.73935 330 ft 0 kts 198°
2026-05-05 09:51 41.26358 28.73935 330 ft 0 kts 198°
2026-05-05 09:52 41.26358 28.73936 330 ft 0 kts 198°
2026-05-05 10:02 41.26363 28.73938 334 ft 4 kts 199°
2026-05-05 10:03 41.26387 28.73953 322 ft 4 kts 217°
2026-05-05 10:03 41.26404 28.73977 329 ft 4 kts 255°
2026-05-05 10:03 41.26406 28.73988 329 ft 0 kts 277°
2026-05-05 10:06 41.26406 28.73984 329 ft 1 kts 277°
2026-05-05 10:06 41.26412 28.73963 331 ft 4 kts 294°
2026-05-05 10:07 41.26441 28.73926 332 ft 7 kts 337°
2026-05-05 10:07 41.26497 28.73899 332 ft 10 kts 340°
2026-05-05 10:07 41.26569 28.73879 333 ft 12 kts 359°
2026-05-05 10:07 41.26657 28.73877 331 ft 14 kts 359°
2026-05-05 10:08 41.26760 28.73875 332 ft 16 kts 359°
2026-05-05 10:08 41.26869 28.73872 330 ft 11 kts 359°
2026-05-05 10:08 41.26948 28.73858 331 ft 11 kts 327°
2026-05-05 10:08 41.26962 28.73765 334 ft 12 kts 268°
2026-05-05 10:09 41.26960 28.73646 334 ft 14 kts 269°
2026-05-05 10:09 41.26958 28.73507 331 ft 12 kts 269°
2026-05-05 10:09 41.26957 28.73388 330 ft 14 kts 268°
2026-05-05 10:09 41.26955 28.73249 334 ft 16 kts 269°
2026-05-05 10:10 41.26953 28.73099 334 ft 17 kts 269°
2026-05-05 10:10 41.26934 28.72999 333 ft 11 kts 216°
2026-05-05 10:10 41.26853 28.72989 329 ft 13 kts 178°
2026-05-05 10:10 41.26761 28.72992 332 ft 9 kts 179°
2026-05-05 10:11 41.26717 28.72945 334 ft 10 kts 271°
2026-05-05 10:11 41.26716 28.72843 334 ft 14 kts 269°
2026-05-05 10:11 41.26714 28.72695 330 ft 14 kts 269°
2026-05-05 10:11 41.26712 28.72570 330 ft 11 kts 269°
2026-05-05 10:12 41.26758 28.72513 333 ft 7 kts 360°
2026-05-05 10:12 41.26768 28.72513 333 ft 0 kts 358°
2026-05-05 10:13 41.26779 28.72513 331 ft 11 kts 359°
2026-05-05 10:13 41.27101 28.72504 330 ft 79 kts 358°
2026-05-05 10:13 41.27837 28.72486 334 ft 130 kts 359°
2026-05-05 10:13 41.28868 28.72459 478 ft 156 kts 358°
2026-05-05 10:14 41.29908 28.72421 1227 ft 147 kts 359°
2026-05-05 10:14 41.30944 28.72392 1760 ft 153 kts 360°
2026-05-05 10:14 41.32113 28.72371 1887 ft 187 kts
2026-05-05 10:14 41.33539 28.72376 1968 ft 225 kts
2026-05-05 10:15 41.35183 28.72412 2006 ft 241 kts
2026-05-05 10:15 41.36870 28.72323 2008 ft 247 kts 346°
2026-05-05 10:15 41.38306 28.71092 2111 ft 257 kts 308°
2026-05-05 10:15 41.38944 28.68839 2383 ft 264 kts 279°
2026-05-05 10:16 41.38928 28.66402 2599 ft 268 kts 266°
2026-05-05 10:16 41.38686 28.63948 3608 ft 266 kts 265°
2026-05-05 10:16 41.38440 28.61513 4586 ft 266 kts 266°
2026-05-05 10:16 41.38131 28.59103 5455 ft 273 kts 254°
2026-05-05 10:17 41.37123 28.56905 6263 ft 286 kts 228°
2026-05-05 10:17 41.35459 28.55395 7036 ft 296 kts 203°
2026-05-05 10:17 41.33427 28.54870 7795 ft 302 kts 177°
2026-05-05 10:17 41.31387 28.55495 8575 ft 304 kts 154°
2026-05-05 10:18 41.29446 28.56657 9367 ft 308 kts 153°
2026-05-05 10:18 41.27484 28.57846 10129 ft 313 kts 153°
2026-05-05 10:18 41.25449 28.59079 10465 ft 333 kts 153°
2026-05-05 10:18 41.23270 28.60393 10720 ft 352 kts 153°
2026-05-05 10:19 41.21013 28.61744 11296 ft 359 kts 154°
2026-05-05 10:19 41.18716 28.63111 11976 ft 363 kts 154°
2026-05-05 10:19 41.16401 28.64486 12684 ft 366 kts 154°
2026-05-05 10:19 41.14065 28.65870 13419 ft 369 kts 154°
2026-05-05 10:20 41.11716 28.67267 14157 ft 371 kts 154°
2026-05-05 10:20 41.09353 28.68673 14815 ft 373 kts 154°
2026-05-05 10:20 41.06972 28.70089 15437 ft 377 kts 154°
2026-05-05 10:20 41.04571 28.71514 16057 ft 380 kts 154°
2026-05-05 10:21 41.02147 28.72951 16622 ft 383 kts 154°
2026-05-05 10:21 40.99701 28.74402 17190 ft 387 kts 154°
2026-05-05 10:21 40.97234 28.75863 17766 ft 390 kts 154°
2026-05-05 10:21 40.94747 28.77336 18326 ft 394 kts 155°
2026-05-05 10:22 40.92239 28.78819 18845 ft 397 kts 155°
2026-05-05 10:22 40.89704 28.80316 19378 ft 400 kts 155°
2026-05-05 10:22 40.87152 28.81823 19927 ft 403 kts 155°
2026-05-05 10:22 40.84581 28.83339 20470 ft 406 kts 156°
2026-05-05 10:23 40.81988 28.84866 20955 ft 410 kts 156°
2026-05-05 10:23 40.79375 28.86403 21427 ft 413 kts 156°
2026-05-05 10:23 40.76768 28.87933 21917 ft 417 kts 157°
2026-05-05 10:23 40.74107 28.89495 22416 ft 420 kts 157°
2026-05-05 10:24 40.71427 28.91067 22903 ft 423 kts 158°
2026-05-05 10:24 40.68723 28.92650 23385 ft 427 kts 158°
2026-05-05 10:24 40.66000 28.94248 23824 ft 430 kts 158°
2026-05-05 10:24 40.63261 28.95855 24236 ft 432 kts 158°
2026-05-05 10:25 40.60499 28.97471 24629 ft 435 kts 158°
2026-05-05 10:25 40.57719 28.99095 24992 ft 439 kts 158°
2026-05-05 10:25 40.54919 29.00728 25376 ft 441 kts 158°
2026-05-05 10:25 40.52106 29.02367 25764 ft 443 kts 158°
2026-05-05 10:26 40.49277 29.04010 26149 ft 445 kts 158°
2026-05-05 10:26 40.46438 29.05657 26535 ft 447 kts 158°
2026-05-05 10:26 40.43589 29.07314 26924 ft 449 kts 158°
2026-05-05 10:26 40.40732 29.08978 27330 ft 451 kts 158°
2026-05-05 10:27 40.37856 29.10651 27721 ft 453 kts 158°
2026-05-05 10:27 40.34965 29.12326 28073 ft 455 kts 158°
2026-05-05 10:27 40.32065 29.14005 28433 ft 457 kts 158°
2026-05-05 10:27 40.29142 29.15695 28819 ft 459 kts 158°
2026-05-05 10:28 40.26214 29.17387 29207 ft 461 kts 158°
2026-05-05 10:28 40.23269 29.19087 29588 ft 463 kts 158°
2026-05-05 10:28 40.20313 29.20795 29953 ft 465 kts 158°
2026-05-05 10:28 40.17345 29.22511 30301 ft 467 kts 158°
2026-05-05 10:29 40.15381 29.23646 30534 ft 467 kts 158°
2026-05-05 10:29 40.12408 29.25361 30921 ft 467 kts 158°
2026-05-05 10:29 40.09428 29.27077 31216 ft 469 kts 158°
2026-05-05 10:29 40.06438 29.28794 31572 ft 470 kts 158°
2026-05-05 10:30 40.02477 29.31064 32067 ft 469 kts 157°
2026-05-05 10:30 40.00454 29.32224 32339 ft 469 kts 157°
2026-05-05 10:30 39.96502 29.34486 32879 ft 468 kts 157°
2026-05-05 10:30 39.94485 29.35639 33024 ft 468 kts 157°
2026-05-05 10:31 39.88581 29.39013 33071 ft 464 kts 158°
2026-05-05 10:31 39.82642 29.42303 33071 ft 464 kts 158°
2026-05-05 10:32 39.76686 29.45544 33070 ft 464 kts 158°
2026-05-05 10:32 39.70727 29.48790 33066 ft 464 kts 158°
2026-05-05 10:33 39.64779 29.52042 33061 ft 464 kts 158°
2026-05-05 10:33 39.58792 29.55179 33063 ft 464 kts 160°
2026-05-05 10:34 39.52751 29.58147 33055 ft 464 kts 160°
2026-05-05 10:34 39.46698 29.61098 33059 ft 465 kts 160°
2026-05-05 10:35 39.40651 29.64095 33048 ft 466 kts 160°
2026-05-05 10:35 39.34642 29.67101 33043 ft 466 kts 160°
2026-05-05 10:36 39.28589 29.70119 33045 ft 467 kts 160°
2026-05-05 10:36 39.22518 29.73129 33050 ft 467 kts 160°
2026-05-05 10:37 39.16431 29.76126 33044 ft 468 kts 160°
2026-05-05 10:37 39.10341 29.79125 33047 ft 468 kts 160°
2026-05-05 10:38 39.04251 29.82125 33049 ft 469 kts 160°
2026-05-05 10:38 38.98195 29.85112 33031 ft 470 kts 158°
2026-05-05 10:39 38.95284 29.87040 33031 ft 471 kts 147°
2026-05-05 10:39 38.92703 29.89618 33031 ft 471 kts 135°
2026-05-05 10:39 38.90556 29.92770 33031 ft 468 kts 123°
2026-05-05 10:39 38.88902 29.96356 33028 ft 465 kts 112°
2026-05-05 10:40 38.87790 30.00229 33026 ft 461 kts 101°
2026-05-05 10:40 38.87186 30.04241 33026 ft 458 kts 95°
2026-05-05 10:40 38.86136 30.12310 33052 ft 459 kts 95°
2026-05-05 10:41 38.85055 30.20387 33046 ft 460 kts 95°
2026-05-05 10:41 38.83964 30.28465 33041 ft 460 kts 95°
2026-05-05 10:42 38.82322 30.40593 33055 ft 460 kts 95°
2026-05-05 10:43 38.81211 30.48675 33059 ft 461 kts 98°
2026-05-05 10:43 38.78833 30.56377 33052 ft 471 kts 118°
2026-05-05 10:44 38.74795 30.62962 33037 ft 475 kts 129°
2026-05-05 10:44 38.70436 30.69354 33026 ft 476 kts 129°
2026-05-05 10:45 38.66085 30.75734 33028 ft 476 kts 129°
2026-05-05 10:45 38.61726 30.82119 33028 ft 476 kts 129°
2026-05-05 10:46 38.57367 30.88505 33030 ft 476 kts 129°
2026-05-05 10:46 38.53005 30.94865 32877 ft 473 kts 129°
2026-05-05 10:46 38.50873 30.97961 32640 ft 468 kts 128°
2026-05-05 10:47 38.48728 31.01076 32382 ft 467 kts 128°
2026-05-05 10:47 38.46585 31.04190 32119 ft 465 kts 128°
2026-05-05 10:47 38.44445 31.07276 31859 ft 464 kts 129°
2026-05-05 10:47 38.42302 31.10341 31592 ft 460 kts 129°
2026-05-05 10:48 38.40173 31.13373 31116 ft 457 kts 129°
2026-05-05 10:48 38.38055 31.16388 30662 ft 455 kts 129°
2026-05-05 10:48 38.35951 31.19386 30199 ft 453 kts 129°
2026-05-05 10:48 38.33859 31.22374 29692 ft 450 kts 129°
2026-05-05 10:49 38.31784 31.25343 29278 ft 447 kts 128°
2026-05-05 10:49 38.29721 31.28294 28796 ft 444 kts 128°
2026-05-05 10:49 38.27670 31.31221 28365 ft 442 kts 128°
2026-05-05 10:49 38.25620 31.34141 27800 ft 442 kts 128°
2026-05-05 10:50 38.23571 31.37056 27285 ft 441 kts 128°
2026-05-05 10:50 38.21541 31.39945 26768 ft 436 kts 128°
2026-05-05 10:50 38.19558 31.42763 26265 ft 430 kts 128°
2026-05-05 10:50 38.17577 31.45569 25767 ft 423 kts 128°
2026-05-05 10:51 38.15626 31.48331 25266 ft 417 kts 128°
2026-05-05 10:51 38.13756 31.51122 24762 ft 410 kts 121°
2026-05-05 10:51 38.12304 31.54184 24297 ft 399 kts 108°
2026-05-05 10:51 38.11331 31.57421 23813 ft 387 kts 98°
2026-05-05 10:52 38.10814 31.60714 23272 ft 376 kts 90°
2026-05-05 10:52 38.10458 31.63987 22702 ft 372 kts 91°
2026-05-05 10:52 38.10097 31.67221 22131 ft 368 kts 91°
2026-05-05 10:52 38.09735 31.70422 21581 ft 364 kts 92°
2026-05-05 10:53 38.09371 31.73584 21037 ft 360 kts 92°
2026-05-05 10:53 38.09010 31.76713 20508 ft 357 kts 93°
2026-05-05 10:53 38.08653 31.79809 19985 ft 353 kts 93°
2026-05-05 10:53 38.08302 31.82881 19486 ft 349 kts 93°
2026-05-05 10:54 38.07955 31.85916 18981 ft 346 kts 94°
2026-05-05 10:54 38.07613 31.88926 18479 ft 343 kts 94°
2026-05-05 10:54 38.07276 31.91905 17932 ft 339 kts 94°
2026-05-05 10:54 38.06944 31.94815 17380 ft 336 kts 95°
2026-05-05 10:55 38.06611 31.97733 16823 ft 333 kts 95°
2026-05-05 10:55 38.06278 32.00626 16280 ft 330 kts 95°
2026-05-05 10:55 38.05943 32.03494 15745 ft 327 kts 95°
2026-05-05 10:55 38.05611 32.06338 15219 ft 325 kts 95°
2026-05-05 10:56 38.05281 32.09167 14706 ft 322 kts 95°
2026-05-05 10:56 38.04734 32.11924 14211 ft 324 kts 109°
2026-05-05 10:56 38.03689 32.14442 14025 ft 323 kts 122°
2026-05-05 10:56 38.02212 32.16609 14025 ft 328 kts 136°
2026-05-05 10:57 38.00378 32.18349 14029 ft 330 kts 144°
2026-05-05 10:57 37.98470 32.19973 14025 ft 331 kts 144°
2026-05-05 10:57 37.96560 32.21595 13952 ft 331 kts 144°
2026-05-05 10:57 37.94646 32.23221 13687 ft 328 kts 144°
2026-05-05 10:58 37.92771 32.24814 13417 ft 322 kts 144°
2026-05-05 10:58 37.90941 32.26362 13146 ft 311 kts 144°
2026-05-05 10:58 37.89171 32.27859 12881 ft 302 kts 144°
2026-05-05 10:58 37.87451 32.29315 12613 ft 294 kts 144°
2026-05-05 10:59 37.85762 32.30747 12353 ft 289 kts 144°
2026-05-05 10:59 37.84131 32.32128 12130 ft 280 kts 144°
2026-05-05 10:59 37.82536 32.33477 11878 ft 273 kts 144°
2026-05-05 10:59 37.80965 32.34807 11564 ft 270 kts 144°
2026-05-05 11:00 37.79418 32.36115 11320 ft 263 kts 144°
2026-05-05 11:00 37.77887 32.37410 10852 ft 266 kts 144°
2026-05-05 11:00 37.76450 32.38892 10239 ft 268 kts 127°
2026-05-05 11:00 37.75541 32.40922 9603 ft 266 kts 104°
2026-05-05 11:01 37.75314 32.43216 8935 ft 263 kts 82°
2026-05-05 11:01 37.75772 32.45433 8280 ft 262 kts 61°
2026-05-05 11:01 37.76841 32.47269 7635 ft 260 kts 40°
2026-05-05 11:01 37.78350 32.48489 7010 ft 259 kts 21°
2026-05-05 11:02 37.80063 32.49177 6418 ft 258 kts 15°
2026-05-05 11:02 37.81747 32.49826 6118 ft 245 kts 17°
2026-05-05 11:02 37.83331 32.50511 5773 ft 236 kts 18°
2026-05-05 11:02 37.84851 32.51205 5649 ft 226 kts 19°
2026-05-05 11:03 37.86296 32.51836 5596 ft 212 kts 16°
2026-05-05 11:03 37.87668 32.52332 5623 ft 197 kts 14°
2026-05-05 11:03 37.88930 32.52781 5449 ft 180 kts 14°
2026-05-05 11:03 37.90103 32.53202 5107 ft 171 kts 14°
2026-05-05 11:04 37.91191 32.53527 4920 ft 154 kts
2026-05-05 11:04 37.92197 32.53824 4622 ft 146 kts 13°
2026-05-05 11:04 37.93175 32.54138 4285 ft 143 kts 15°
2026-05-05 11:04 37.94114 32.54517 4052 ft 141 kts 15°
2026-05-05 11:05 37.95038 32.54863 3780 ft 140 kts 14°
2026-05-05 11:05 37.95958 32.55213 3562 ft 137 kts 14°
2026-05-05 11:05 37.96880 32.55558 3387 ft 134 kts 16°
2026-05-05 11:05 37.97612 32.55834 3376 ft 87 kts 15°
2026-05-05 11:06 37.98083 32.56014 3380 ft 59 kts 17°
2026-05-05 11:06 37.98411 32.56135 3380 ft 31 kts 19°
2026-05-05 11:06 37.98611 32.56215 3382 ft 28 kts 18°
2026-05-05 11:06 37.98704 32.56279 3385 ft 9 kts 78°
2026-05-05 11:07 37.98691 32.56349 3385 ft 7 kts 107°
2026-05-05 11:07 37.98676 32.56410 3384 ft 8 kts 107°
2026-05-05 11:07 37.98655 32.56498 3386 ft 14 kts 107°
2026-05-05 11:07 37.98629 32.56611 3386 ft 13 kts 106°
2026-05-05 11:08 37.98600 32.56730 3386 ft 15 kts 107°
2026-05-05 11:08 37.98568 32.56864 3386 ft 17 kts 107°
2026-05-05 11:08 37.98535 32.57002 3388 ft 17 kts 107°
2026-05-05 11:08 37.98501 32.57146 3387 ft 14 kts 105°
2026-05-05 11:09 37.98472 32.57268 3386 ft 15 kts 107°
2026-05-05 11:09 37.98442 32.57394 3386 ft 10 kts 107°
2026-05-05 11:09 37.98419 32.57467 3388 ft 6 kts 107°
2026-05-05 11:09 37.98408 32.57514 3386 ft 1 kts 107°
2026-05-05 11:10 37.98405 32.57525 3390 ft 0 kts 108°